078  
ASUS43 KFGF 122331  
RWRFGF  
PRAIRIE TO PINES WEATHER ROUNDUP  
NATIONAL WEATHER SERVICE EASTERN NORTH DAKOTA/GRAND FORKS ND  
600 PM CDT WED AUG 12 2020  
 
**SATELLITE DATA USED TO AUGMENT SKY COVER AT AUTOMATED STATIONS**  
***** WEATHER ACROSS EASTERN NORTH DAKOTA *****  
 
CITY SKY/WX TMP DP RH WIND PRES REMARKS
 
GRAND FORKS FAIR 81 62 52 SE16 29.89S  
GRAND FRKS AFB FAIR 82 67 60 SE14 29.89R  
GRAND FRKS NWS N/A 81 65 58 SE9 29.85S  
DEVILS LAKE FAIR 82 64 54 SE14G21 29.87R  
FARGO CLOUDY 74 65 73 SE14G24 29.91R  
WAHPETON ARPT NOT AVBL  

 
 
***** WEATHER ACROSS CENTRAL AND WESTERN NORTH DAKOTA *****  
 
CITY SKY/WX TMP DP RH WIND PRES REMARKS
 
BISMARCK FAIR 93 60 33 SE20 29.78F HX 93  
MINOT FAIR 89 57 33 SE24G35 29.76F  
JAMESTOWN FAIR 79 66 64 SE14G23 29.86S  
MINOT AFB FAIR 87 60 39 S22G30 29.73F  
GARRISON N/A 90 62 39 SE18G28 29.76F HX 90  
WILLISTON NOT AVBL  
DICKINSON FAIR 91 56 30 SE25G33 29.75F  
HETTINGER FAIR 87 64 46 SE15G25 29.77F  

 
 
***** OTHER AIRPORT OBSERVATIONS IN OUR AREA *****  
 
CITY SKY/WX TMP DP RH WIND PRES REMARKS
 
WALHALLA FAIR 82 66 57 SE12 29.87S  
GRAFTON AIRPOR FAIR 82 64 54 SE16G23 29.90S  
VALLEY CITY AR MOCLDY 75 70 83 SE15 29.91R  
CANDO FAIR 81 64 57 SE18 29.87F  
CAVALIER APRT FAIR 82 63 51 S12 29.87R  
GWINNER MOCLDY 75 75 100 SE16 29.88S  
SHEYENNE NWR N/A 73 68 84 SE13 29.95S  
ROLLA FAIR 79 64 61 SE13G20 29.86F  
***** THE ABOVE OBSERVATIONS ARE NON NWS ARE NOT QUALITY  
CONTROLLED AND MAY MIS-REPORT RAIN FOR SNOW...  

 
 
***** WEATHER ACROSS NORTHERN MINNESOTA *****  
 
CITY SKY/WX TMP DP RH WIND PRES REMARKS
 
FLAG ISLAND N/A 79 64 61 S5 29.95S  
WARROAD FAIR 82 70 65 S9 29.95R  
ROSEAU FAIR 82 N/A N/A S12 29.94S  
HALLOCK FAIR 84 64 51 S15 29.89R  
THF RVR FALLS FAIR 80 63 55 S15 29.96R  
BAUDETTE PTSUNNY 80 63 55 SE10 29.97S  
WASKISH N/A 77 64 65 S8 29.98S  
CROOKSTON FAIR 79 64 61 S16 29.92S  
STEPHEN NDAWN N/A 82 63 51 MISG N/A  
GREENBUSH NDAW N/A 81 64 57 MISG N/A  

 
***** WEATHER ACROSS CENTRAL AND WEST MINNESOTA *****  
 
CITY SKY/WX TMP DP RH WIND PRES REMARKS
 
FOSSTON FAIR 73 61 64 SE6 29.98R  
BEMIDJI FAIR 73 62 68 S13 30.00F  
PARK RAPIDS FAIR 73 58 59 SE15 30.00F  
ELBOW LAKE CLOUDY 69 65 85 SE20 29.95S  
WADENA CLOUDY 66 61 82 SE13 29.98F  
DETROIT LAKES N/A 72 61 68 SE15 29.97F  
MOORHEAD PTSUNNY N/A N/A N/A SE13G18 29.92S  
FERGUS FALLS CLOUDY 70 63 78 SE14G20 29.94F  
MORRIS MN FAIR 70 66 88 E17G23 29.93S  
STAPLES PTSUNNY 64 61 88 SE5 30.00S  

 
***** WEATHER ELSEWHERE ACROSS MINNESOTA *****  
 
CITY SKY/WX TMP DP RH WIND PRES REMARKS
 
DULUTH LGT RAIN 69 62 78 S12 30.08R  
INTRNTL FALLS FAIR 78 60 53 S8 30.00S  
ELY FAIR 75 55 50 S7 30.06S  
CLOQUET RAIN 63 57 82 SE5 30.08F  
WHEATON CLOUDY 72 64 78 E15 29.92S  
BRAINERD CLOUDY 69 62 78 SE9 30.02F  
HIBBING FAIR 72 62 71 SE8 30.05S  
ALEXANDRIA CLOUDY 67 63 87 E18 29.99S  
SAINT CLOUD CLOUDY 64 62 93 E6 30.01R  
MINNEAPOLIS CLOUDY 68 60 75 N14G23 30.04R  

 
 
***** WEATHER ACROSS SOUTH DAKOTA *****  
 
CITY SKY/WX TMP DP RH WIND PRES REMARKS
 
SIOUX FALLS FAIR 87 71 58 S23G30 29.88F HX 93  
BROOKINGS FAIR 86 70 58 S17G23 29.88S HX 90  
WATERTOWN FAIR 83 72 69 S10 29.88R  
HURON FAIR 87 72 60 S12 29.81F HX 93  
SISSETON N/A 73 68 84 E15G22 29.89R  
ABERDEEN FAIR 86 73 65 E9 29.82F HX 93  
MITCHELL FAIR 88 67 49 S13 29.83F HX 91  
PIERRE FAIR 94 60 32 SE23G32 29.73F HX 94  
MOBRIDGE FAIR 90 71 53 SE20 29.75F HX 96  
RAPID CITY FAIR 97 44 16 N3 29.75F HX 93  

 
 
***** SOME WEATHER IN NEARBY STATES *****  
 
CITY SKY/WX TMP DP RH WIND PRES REMARKS
 
GLASGOW MT FAIR 95 40 14 NW14G23 29.66S HX 91  
GREAT FALLS MT FAIR 75 31 19 NW14G21 29.85R  
CHEYENNE WY FAIR 86 28 12 SW17G37 30.08F  
SCOTTSBLUFF NE FAIR 94 41 16 S14 29.90S HX 90  
OMAHA NE CLOUDY 83 71 67 S10 29.96R  
DES MOINES IA CLOUDY 85 71 63 SE9 29.96F HX 90  
DAVENPORT IA FAIR 81 62 52 E10 30.05F  
CHICAGO IL FAIR 84 59 42 E9 30.06F  
EAU CLAIRE WI CLOUDY 73 63 70 CALM 30.02R  
LA CROSSE WI FAIR 84 62 47 SE7 30.01F  

 
 
***** SOME NATIONAL WEATHER *****  
 
CITY SKY/WX TMP DP RH WIND PRES REMARKS
 
LA GUARDIA NY MOCLDY 85 72 65 S6 30.00F HX 91  
RALEIGH NC PTSUNNY 87 73 62 SE10 29.98R HX 94  
ATLANTA GA CLOUDY 78 71 79 S8 30.00S  
NEW ORLEANS LA PTSUNNY 82 73 74 S8 29.98F  
OKLAHOMA CITY FAIR 91 74 57 SE12 29.87F HX 100  
ALBUQUERQUE NM FAIR 96 36 12 N8 30.09F HX 91  
SALT LAKE CITY FAIR 92 38 15 N8 29.98F  
LOS ANGELES CA MOSUNNY 68 59 73 W14 29.88S  
BOISE ID FAIR 83 35 18 N6 29.91F  
SEATTLE WA PTSUNNY 69 44 40 W8 30.08F  

 
 
*** WEATHER ACROSS MANITOBA...SASKATCHEWAN AND ONTARIO ***  
***ONTARIO***  
 
CITY SKY/WX TMP DP RH WIND PRES REMARKS
 
GERALDTON MOSUNNY 79 46 31 W7 30.06S  
THUNDER BAY PTSUNNY 79 57 47 S7 30.03S  
SIOUX LOOKOUT MOSUNNY 81 48 32 SE5 30.01F  
TORONTO MOSUNNY 81 54 39 SE10 30.07S  
BIG TROUT LK SUNNY 66 54 63 VRB2 30.10S  
PICKLE LAKE MOSUNNY 77 46 33 VRB2 30.05S  
DRYDEN SUNNY 84 48 28 SE6 29.99S  
KENORA MOSUNNY 84 55 37 S9 29.98S  

 
*** MANITOBA***  
 
CITY SKY/WX TMP DP RH WIND PRES REMARKS
 
BRANDON PTSUNNY 84 68 58 SE16G23 29.81F  
DAUPHIN MOSUNNY 73 63 68 S3 29.84R  
ISLAND LAKE NOT AVBL  
PILOT MOUND N/A 81 66 61 SE15G21 N/A  
THE PAS TSTM 72 59 64 MISG 29.81R  
THOMPSON PTSUNNY 70 54 56 VRB6 29.95F  
WINNIPEG MOSUNNY 86 63 45 SE16G23 29.87S  
LYNN LAKE PTSUNNY 68 55 64 MISG 29.85F  
CHURCHILL MOSUNNY 72 48 43 NE5 30.01S  
GILLAM MOSUNNY 70 45 40 S8 30.03R  

 
***SASKATCHEWAN***  
 
CITY SKY/WX TMP DP RH WIND PRES REMARKS
 
ESTEVAN PTSUNNY 86 59 39 SE15G26 29.72R  
KINDERSLEY PTSUNNY 68 45 42 NW15 29.80R  
LLOYDMINSTER PTSUNNY 64 46 52 NW17G25 29.77R  
PRINCE ALBERT PTSUNNY 75 55 50 W12 29.69R  
REGINA PTSUNNY 82 57 42 E10 29.67F  
YORKTON LGT RAIN 73 57 56 SE13G21 29.74R  
N. BATTLEFORD SUNNY 64 54 68 NW14G20 29.78R  
LA RONGE PTSUNNY 72 57 60 SE10 29.65S  
SASKATOON CLOUDY 73 52 46 NW8 29.75R  
SWIFT CURRENT SUNNY 77 45 31 NW14 29.78R  

 
NOTE: THESE ARE AUTOMATED STATIONS WITH LIMITED QUALITY CONTROL  
"FAIR" INDICATES FEW OR NO CLOUDS BELOW 12,000 FEET WITH NO  
SIGNIFICANT WEATHER AND/OR S TO VISIBILITY
.  
SKY/WX - SKY CONDITION AND SIGNIFICANT WEATHER.  
TMP - AIR TEMPERATURE. DP - DEWPOINT TEMPERATURE.  
RH - RELATIVE HUMIDITY. PRES - PRESSURE.  
HX - HEAT INDEX. WCI - WIND CHILL INDEX.  
$  
 
 
CLICK HERE TO GO TO PREVIOUS BULLETINS.

The Nexlab ND Page
The Nexlab MN Page Main Text Page